Regional Weather Roundup
Issued by NWS

Home | Current Version | Previous Version | Text Only | Print | Product List | Glossary On
Versions: 1 2 3 4 5 6 7 8 9 10 11 12 13 14 15 16 17 18 19 20 21 22 23 24 25 26 27 28 29 30 31 32 33 34 35 36 37 38 39 40 41 42 43 44 45 46 47 48 49 50
575
ASUS44 KFWD 192215
RWRTX
NORTH TEXAS HOURLY WEATHER ROUNDUP
NATIONAL WEATHER SERVICE FORT WORTH TX
500 PM CDT TUE SEP 19 2017

NOTE: "FAIR" INDICATES FEW OR NO CLOUDS BELOW 12,000 FEET WITH NO
SIGNIFICANT WEATHER AND/OR OBSTRUCTIONS TO VISIBILITY.

TXZ118-119-192300-
DALLAS/FORT WORTH METROPLEX

CITY           SKY/WX    TMP DP  RH WIND       PRES   REMARKS
DFW AIRPORT    PTSUNNY   97  67  37 S15       29.75F HX 101
DALLAS LOVE    MOSUNNY   96  67  38 S18G24    29.77F HX 100
FTW MEACHAM    SUNNY     98  67  36 SE22G28   29.75F HX 102
DAL-EXECUTIVE  MOSUNNY  N/A N/A N/A S13G20    29.78F
FTW-ALLIANCE   MOSUNNY   97  65  34 S10G21    29.75F HX  99
FTW-NAS-JRB    SUNNY     97  66  36 S16       29.75F HX 100
FTW-SPINKS     MOSUNNY   97  64  34 S13G21    29.79F HX  99
ARLINGTON      SUNNY     95  69  42 S17       29.77F HX 100
GRAND PRAIRIE  SUNNY     95  63  34 SE14G22   29.79F HX  96
ADDISON        MOSUNNY   95  64  36 SE14G21   29.77F HX  97
MESQUITE       MOSUNNY   93  66  40 SE9       29.79F HX  96
LANCASTER      MOSUNNY   96  68  39 S14G20    29.79F HX 100
$$

TXZ091>094-102>105-117-120-121-131>134-192300-
NORTH CENTRAL TEXAS

CITY           SKY/WX    TMP DP  RH WIND       PRES   REMARKS
SHRMAN/DENISON SUNNY     92  70  49 S14G20    29.80F HX  97
GAINESVILLE    MOSUNNY   94  66  40 S14G22    29.78F HX  96
BOWIE          SUNNY     93  68  43 SE12G22   29.75F HX  97
BRIDGEPORT     MOSUNNY   95  65  36 SE13G20   29.76F HX  97
DECATUR        SUNNY     95  65  36 S15G22    29.76F HX  97
DENTON         MOSUNNY   94  68  42 S15       29.76F HX  98
MCKINNEY       MOSUNNY   94  73  50 SE20      29.78F HX 103
BONHAM         MOSUNNY   91  70  49 S15       29.80F HX  97
GREENVILLE     MOSUNNY   95  68  41 S15       29.81F HX  99
ROCKWALL       MOSUNNY   94  70  45 S17G23    29.80F HX 100
TERRELL        MOSUNNY   95  68  41 S12       29.80F HX  99
WAXAHACHIE     MOSUNNY   93  67  41 S13G21    29.80F HX  97
CLEBURNE       MOSUNNY   93  68  43 S15G23    29.80F HX  97
GRANBURY       SUNNY     98  65  34 SE15G23   29.76F HX 100
$$

TXZ083>090-098>101-113>116-127>130-139>142-154-155-192300-
WESTERN NORTH TEXAS

CITY           SKY/WX    TMP DP  RH WIND       PRES   REMARKS
WICHITA FALLS  TSTM      75  66  73 S9        29.76F
WF-KICKAPOO    TSTM      80  69  69 W12G21    29.78R
VERNON         MOSUNNY  100  51  19 SW10G17   29.69F HX  97
ABILENE        LGT RAIN  95  64  35 S16G24    29.77F HX  97
ABILENE-DYESS  MOSUNNY   98  63  31 S17G25    29.75F HX  99
GRAHAM         MOSUNNY   99  62  30 S10G23    29.70F HX 100
BRECKENRIDGE   PTSUNNY   98  61  29 S15G24    29.73F HAZE    HX  98
CISCO          MOSUNNY   95  64  36 S10G18    29.80F HAZE    HX  97
EASTLAND       SUNNY     96  64  34 S15       29.77F HX  98
RANGER         SUNNY     94  64  36 S15G22    29.78F HX  96
MINERAL WELLS  MOSUNNY   97  65  34 S21G28    29.73F HX  99
STEPHENVILLE   MOSUNNY   95  63  34 S14       29.81F HX  96
COMANCHE       PTSUNNY   96  65  36 S10G20    29.80F HX  99
BROWNWOOD      CLOUDY    90  63  40 S18G25    29.81R HX  90
COLEMAN        CLOUDY    94  61  32 S13       29.80S HX  94
$$

TXZ143>147-156>162-174-175-192300-
CENTRAL TEXAS

CITY           SKY/WX    TMP DP  RH WIND       PRES   REMARKS
WACO           SUNNY     96  68  39 S14       29.80F HX 101
WACO-TSTC      MOSUNNY   95  66  38 S12       29.80F HX  98
WACO-MCGREGOR  MOSUNNY   97  70  41 S13G21    29.80F HX 103
HILLSBORO      MOSUNNY   94  68  41 S17       29.80F HX  99
CORSICANA      SUNNY     94  70  45 SE13G18   29.81F HX 100
MEXIA          SUNNY     91  70  49 S12G21    29.81F HX  96
HEARNE         MOSUNNY   92  72  51 S12       29.84F HX  99
CAMERON        SUNNY     92  71  49 S12       29.82F HX  99
TEMPLE         MOSUNNY   91  71  51 S16G24    29.81F HX  97
KILLEEN        MOSUNNY   91  72  52 S15       29.82F HX  98
FORT HOOD      MOSUNNY   90  69  49 S10       29.79F HX  94
GATESVILLE     SUNNY     95  68  41 S13       29.82F HX  99
HAMILTON       CLOUDY    91  66  43 S9G18     29.83F HX  93
LAMPASAS       PTSUNNY   91  72  54 S10       29.83F HX  98
$$

TXZ095>097-106>112-122>126-135>138-148>153-164>167-192300-
EAST TEXAS

CITY           SKY/WX    TMP DP  RH WIND       PRES   REMARKS
PARIS          MOSUNNY   91  70  49 S12       29.82F HX  96
SULPHUR SPRNGS MOSUNNY   92  67  43 S12       29.84F HX  96
MOUNT PLEASANT SUNNY     89  71  54 SE7       29.85F HX  95
GILMER         SUNNY     91  69  48 S10       29.84F HX  95
MINEOLA        MOSUNNY   91  73  55 SE7       29.82F HX 100
TYLER          SUNNY     92  70  48 S14       29.84F HX  97
LONGVIEW       PTSUNNY   92  72  51 S10       29.84F HX  99
MARSHALL       SUNNY     90  71  53 MISG      29.88F HX  96
ATHENS         MOSUNNY   91  68  46 S10G16    29.81F HX  95
PALESTINE      MOSUNNY   91  74  58 S9        29.86F HX 100
JACKSONVILLE   SUNNY     89  72  58 S8        29.89F HX  95
HENDERSON      MOSUNNY   90  71  53 S6        29.87S HX  96
CENTER         PTCLDY    92  76  58 SE6       29.89F HX 104
NACOGDOCHES    MOSUNNY   87  77  72 SE9       29.88F HX  99
LUFKIN         MOSUNNY   87  75  67 SE8       29.87F HX  96
$$

SUPPLEMENTAL OBSERVATIONS (NWS FORT WORTH AREA)

CITY           SKY/WX    TMP DP  RH WIND       PRES   REMARKS
DENISON DAM      N/A     91  70  49 SE9         N/A  HX  97
CADDO GRASSLND   N/A     91  70  49 S9          N/A  HX  97
PAT MAYSE LAKE   N/A     90  70  51 SE15        N/A  HX  95
GREENVILLE       N/A     93  70  46 S9G17       N/A  HX  99
CEDAR HILL       N/A     97  66  36 SE12G21     N/A  HX 100
LBJ GRASSLAND    N/A     97  63  32 SE13G21     N/A  HX  98
POSSUM KINGDOM   N/A     97  64  34 S14G24      N/A  HX  99
GRANBURY         N/A     97  66  36 SE17G24     N/A  HX 100
COMANCHE         N/A     93  64  38 S14         N/A  HX  95
MCGREGOR         N/A     93  66  40 S13G22      N/A  HX  96
TEMPLE           N/A     91  70  49 S9G21       N/A  HX  97
LAKE LIMESTONE   N/A     91  70  49 S10         N/A  HX  97
ATHENS           N/A     91  70  49 S9G17       N/A  HX  97
$$

SUPPLEMENTAL OBSERVATIONS (NWS NORMAN AREA)

CITY           SKY/WX    TMP DP  RH WIND       PRES   REMARKS
GOODLETT         N/A     97  57  25 S17       29.69F HX  96
ODELL            N/A     97  60  28 S14       29.70F HX  97
CROWELL          N/A    100  62  28 S12       29.70F HX 101
KNOX CITY        N/A    100  59  25 S21G29    29.71F HX  99
SEYMOUR          N/A    101  57  23 SW20G26   29.70F HX 100
MILLERS CREEK    N/A     99  63  30 S17G24      N/A  HX 100
$$

SUPPLEMENTAL OBSERVATIONS (NWS SAN ANGELO AREA)

CITY           SKY/WX    TMP DP  RH WIND       PRES   REMARKS
WEINERT          N/A    100  62  28 S15       29.72F HX 101
HASKELL          N/A     98  54  23 S17G24    29.73F HX  96
THROCKMORTON     N/A     98  66  35 S23G31    29.73F HX 101
STAMFORD         N/A     99  62  29 S16       29.74F HX  99
CLYDE            N/A     94  64  36 SW15      29.80F HX  96
HAMBY            N/A    N/A N/A N/A S16G25      N/A
IVIE RESERVOIR   N/A     95  63  34 S17G23      N/A  HX  96
COLORADO BEND    N/A     88  66  48 SE9G20      N/A  HX  90
$$

SUPPLEMENTAL OBSERVATIONS (NWS SHREVEPORT AREA)

CITY           SKY/WX    TMP DP  RH WIND       PRES   REMARKS
CLARKSVILLE      N/A     91  68  46 S9          N/A  HX  95
TEXARKANA        N/A     90  73  58 SE2         N/A  HX  98
LINDEN           N/A     91  70  49 SE5         N/A  HX  97
CADDO LAKE       N/A     93  72  49 S5          N/A  HX 100
GILMER           N/A     91  68  46 SW7         N/A  HX  95
HENDERSON        N/A     91  72  52 S10         N/A  HX  98
LUFKIN           N/A     88  77  70 MISG        N/A  HX 100
N SABINE NF      N/A     86  77  74 MISG        N/A  HX  97
S SABINE NF      N/A     88  79  74 SE2         N/A  HX 102
$$

SUPPLEMENTAL OBSERVATIONS ARE A COLLECTION OF AUTOMATED INSTRUMENTS
THAT ARE MAINTAINED BY A VARIETY OF FEDERAL AND STATE AGENCIES.
CERTAIN ELEMENTS...SUCH AS HUMIDITY VALUES AND SUSTAINED WIND
SPEEDS...MAY BE APPROXIMATED.





USA.gov is the U.S. government's official web portal to all federal, state and local government web resources and services.